Miscellaneous Local Product
Issued by NWS Hastings, NE

Home | Current Version | Previous Version | Text Only | Print | Product List | Glossary Off
Versions: 1 2 3 4 5 6 7 8 9 10 11 12 13 14 15 16 17 18 19 20 21 22 23 24 25 26 27 28 29 30 31 32 33 34 35 36 37 38 39 40 41 42 43 44 45 46 47 48 49 50

000
AXUS43 KGID 260702
MISGRI

GID CWA HOURLY WEATHER ROUNDUP
NATIONAL WEATHER SERVICE HASTINGS NE
200 AM CDT TUE JUL 26 2016

NOTE: "FAIR" INDICATES FEW OR NO CLOUDS BELOW 12,000 FEET WITH NO
SIGNIFICANT WEATHER AND/OR OBSTRUCTIONS TO VISIBILITY.

...SOUTH CENTRAL NEBRASKA...

CITY           SKY/WX    TMP DP  RH WIND       PRES   REMARKS
GRAND ISLAND   CLEAR     69  62  78 SE7       30.12F
HASTINGS       CLEAR     70  61  73 S6        30.13F
KEARNEY        CLEAR     66  61  82 SE8       30.12F
ORD            CLEAR     67  61  81 CALM      30.11S
YORK           CLEAR     66  63  88 CALM      30.12F
AURORA         CLEAR     66  64  93 S3        30.12F
LEXINGTON      CLEAR     69  61  76 SE8       30.12S
HOLDREGE       CLEAR     65  60  85 SE6       30.12F
HEBRON         CLEAR     62  60  92 CALM      30.11F

...NEBRASKA PANHANDLE...

CITY           SKY/WX    TMP DP  RH WIND       PRES   REMARKS
CHADRON        CLEAR     78  61  55 S23G32    30.03F
ALLIANCE       CLEAR     67  62  84 SE9       30.11S
SCOTTSBLUFF    CLEAR     69  62  78 E10       30.09F
SIDNEY         CLEAR     70  62  76 S16       30.14F

...WESTERN AND NORTH CENTRAL NEBRASKA...

CITY           SKY/WX    TMP DP  RH WIND       PRES   REMARKS
VALENTINE      CLEAR     74  62  66 S15G24    30.08F
AINSWORTH      CLEAR     70  62  77 S9        30.10F
ONEILL         CLEAR     67  62  82 S8        30.11F
BROKEN BOW     CLEAR     66  63  90 SE5       30.12F
IMPERIAL       CLEAR     69  63  81 S12       30.11F
NORTH PLATTE   CLEAR     71  64  78 SE7       30.12R
MCCOOK         MOCLDY    71  64  78 S3        30.11F

...EASTERN NEBRASKA...

CITY           SKY/WX    TMP DP  RH WIND       PRES   REMARKS
NORFOLK        CLEAR     68  62  81 S6        30.11S
SO SIOUX CITY  CLEAR     69  64  84 E3        30.09F
TEKAMAH        CLEAR     66  63  90 CALM      30.10R
COLUMBUS       CLEAR     63  55  77 CALM      30.11F
ALBION         CLEAR     65  60  85 CALM      30.12F
OMAHA EPPLEY   PTCLDY    71  66  84 CALM      30.09S
OFFUTT AFB     CLEAR     65  65 100 CALM      30.08F
MILLARD        PTCLDY    69  67  94 CALM      30.09S
LINCOLN        PTCLDY    66  63  90 N5        30.10F
NEBRASKA CITY  MOCLDY    73  65  76 CALM      30.09F
BEATRICE       CLEAR     64  62  92 CALM      30.10S
FALLS CITY     PTCLDY    70  67  90 CALM      30.07S

...NORTHERN KANSAS...

CITY           SKY/WX    TMP DP  RH WIND       PRES   REMARKS
GOODLAND       CLOUDY    69  64  84 SE12      30.13F
HILL CITY      PTCLDY    68  64  87 E5        30.11F
NORTON         SUNNY     70  63  78 SE9       30.10F
SMITH CENTER   CLEAR     66  63  88 E6        30.11F
BELOIT         CLEAR     64  64 100 CALM      30.09F
HAYS           PTCLDY    70  61  73 E6        30.10F
RUSSELL        CLOUDY    68  66  93 E5        30.09F
CONCORDIA      CLEAR     67  63  87 CALM      30.10F
SALINA         CLEAR     72  68  87 NW5       30.08S
TOPEKA         MOCLDY    71  67  87 CALM      30.05F



USA.gov is the U.S. government's official web portal to all federal, state and local government web resources and services.